This demonstration page uses our WeatherBlox Daily Observations layout. Learn more.

Left ArrowRight Arrow

Hourly Observations for June 3, 2019

Temp ( °F °C ) Dew Point ( °F °C ) Humidity (%) Winds ( mph kmh ) Pressure ( in mb ) Visibility ( mi km ) Precip ( " mm )
12:56 am 00:56 Clear 65 18.3 53 11.7 66 66 SSE 14 22 29.92 1013 10 16 0.00 0.00
1:56 am 01:56 Mostly Cloudy 66 18.9 53 11.7 63 63 SSE 16 26 29.91 1013 10 16 0.00 0.00
2:23 am 02:23 Mostly Cloudy with Nearby Thunderstorms 66 19 54 12 64 64 SSE 16 26 29.89 1012 10 16 0.00 0.00
2:27 am 02:27 Partly Cloudy with Nearby Thunderstorms 66 19 54 12 64 64 SSE 16 26 29.88 1012 10 16 0.00 0.00
2:38 am 02:38 Mostly Clear 64 18 54 12 68 68 SSE 15 24 29.89 1012 10 16 0.00 0.00
2:56 am 02:56 Mostly Cloudy 65 18.3 54 12.2 68 68 SSE 14 22 29.91 1013 10 16 0.00 0.00
3:47 am 03:47 Cloudy with Nearby Thunderstorms 64 18 55 13 73 73 NW 22 35 29.92 1013 10 16 0.00 0.00
3:56 am 03:56 Cloudy with Thunderstorms 63 17.2 58 14.4 84 84 NW 18 30 29.96 1015 10 16 0.03 0.76
4:17 am 04:17 Cloudy with Nearby Thunderstorms 61 16 57 14 88 88 N 10 17 29.94 1014 10 16 0.12 3.05
4:28 am 04:28 Cloudy with Nearby Thunderstorms 61 16 59 15 94 94 NNW 6 9 29.94 1014 10 16 0.15 3.81
4:36 am 04:36 Cloudy with Rain 61 16 57 14 88 88 N 8 13 29.93 1013 10 16 0.16 4.06
4:56 am 04:56 Cloudy with Light Rain 60 15.6 58 14.4 93 93 E 7 11 29.92 1013 10 16 0.18 4.57
5:27 am 05:27 Cloudy with Light Rain 61 16 59 15 94 94 ESE 13 20 29.93 1013 10 16 0.02 0.51
5:37 am 05:37 Cloudy with Light Rain 61 16 59 15 94 94 SE 14 22 29.94 1014 9 14 0.00 0.00
5:44 am 05:44 Cloudy with Rain 61 16 59 15 94 94 SSE 10 17 29.94 1014 6 10 0.05 1.27
5:56 am 05:56 Cloudy with Light Rain 60 15.6 59 15 96 96 E 15 24 29.91 1013 8 13 0.06 1.52
6:51 am 06:51 Mostly Cloudy 61 16 59 15 94 94 ENE 5 7 29.93 1013 10 16 0.00 0.00
6:56 am 06:56 Mostly Cloudy 61 16.1 59 15 93 93 NE 5 7 29.93 1014 10 16 0.01 0.25
7:56 am 07:56 Cloudy 62 16.7 60 15.6 93 93 SE 10 17 29.91 1013 10 16 0.00 0.00
8:08 am 08:08 Cloudy 63 17 61 16 94 94 SE 9 15 29.91 1013 10 16 0.00 0.00
8:20 am 08:20 Cloudy 63 17 61 16 94 94 SE 8 13 29.92 1013 10 16 0.00 0.00
8:38 am 08:38 Cloudy 63 17 61 16 94 94 SE 12 19 29.92 1013 10 16 0.00 0.00
8:56 am 08:56 Cloudy 62 16.7 61 16.1 96 96 SE 10 17 29.93 1014 10 16 0.00 0.00
9:56 am 09:56 Cloudy 65 18.3 62 16.7 90 90 SE 14 22 29.93 1014 10 16 0.00 0.00
10:06 am 10:06 Cloudy 64 18 63 17 94 94 SE 13 20 29.91 1013 10 16 0.00 0.00
10:34 am 10:34 Cloudy 70 21 64 18 83 83 SSE 16 26 29.88 1012 10 16 0.00 0.00
10:56 am 10:56 Cloudy 70 21.1 65 18.3 84 84 SSE 16 26 29.92 1013 10 16 0.00 0.00
11:56 am 11:56 Cloudy 72 22.2 66 18.9 82 82 SSE 13 20 29.92 1013 10 16 0.00 0.00
12:24 pm 12:24 Partly Cloudy 73 23 66 19 78 78 SSE 14 22 29.85 1011 10 16 0.00 0.00
12:56 pm 12:56 Partly Cloudy 75 23.9 67 19.4 76 76 SSE 15 24 29.90 1013 10 16 0.00 0.00
1:56 pm 13:56 Mostly Cloudy 78 25.6 68 20 71 71 SE 14 22 29.88 1012 10 16 0.00 0.00
2:56 pm 14:56 Mostly Sunny 80 26.7 67 19.4 64 64 SSE 14 22 29.85 1011 10 16 0.00 0.00
3:56 pm 15:56 Mostly Cloudy 81 27.2 67 19.4 62 62 SSE 13 20 29.84 1011 10 16 0.00 0.00
4:56 pm 16:56 Partly Cloudy 82 27.8 67 19.4 60 60 S 14 22 29.82 1010 10 16 0.00 0.00
5:56 pm 17:56 Mostly Sunny 82 27.8 64 17.8 55 55 SSW 13 20 29.80 1009 10 16 0.00 0.00
6:56 pm 18:56 Sunny 83 28.3 65 18.3 55 55 S 12 19 29.77 1008 10 16 0.00 0.00
7:56 pm 19:56 Sunny 78 25.6 65 18.3 64 64 S 9 15 29.79 1009 10 16 0.00 0.00
8:56 pm 20:56 Sunny 74 23.3 66 18.9 76 76 SSE 6 9 29.80 1009 10 16 0.00 0.00
9:56 pm 21:56 Clear 73 22.8 65 18.3 76 76 SSE 9 15 29.82 1010 10 16 0.00 0.00
10:56 pm 22:56 Clear 72 22.2 66 18.9 82 82 SE 8 13 29.84 1010 10 16 0.00 0.00
11:56 pm 23:56 Partly Cloudy with Light Rain 73 22.8 66 18.9 79 79 SSE 9 15 29.81 1010 10 16 0.00 0.03

Powered by AerisWeather